Location: Kelshall
(52.0000°N, 0.0500°W)
Time: 06:55:54
(UTC+00:00)

SPOT 5 - Pass Details

Date: 18 September 2020
Orbit: 623 x 814 km, 98.3° (Epoch: 19 October)

Event Time Altitude Azimuth Distance (km) Brightness Sun altitude
Exits shadow 20:40:11 37° 69° (ENE) 1,220 3.7 -22.9°
Maximum altitude 20:40:24 37° 63° (ENE) 1,218 3.8 -22.9°
Drops below altitude 10° 20:45:14 10° 358° (N) 2,400 6.0 -23.5°
Sets 20:47:45 0° 350° (N) 3,346 7.0 -23.8°
